TimeCDT,TemperatureF,Dew PointF,Humidity,Sea Level PressureIn,VisibilityMPH,Wind Direction,Wind SpeedMPH,Gust SpeedMPH,PrecipitationIn,Events,Conditions,WindDirDegrees,DateUTC
12:58 AM,34.9,25.2,68,30.08,10.0,North,4.6,-,N/A,,Clear,350,2013-03-19 05:58:00
1:58 AM,33.3,22.5,65,30.08,10.0,North,4.6,-,N/A,,Clear,360,2013-03-19 06:58:00
2:58 AM,32.4,20.8,63,30.11,10.0,NNW,3.5,-,N/A,,Clear,330,2013-03-19 07:58:00
3:58 AM,28.8,20.5,71,30.10,10.0,Calm,Calm,-,N/A,,Clear,340,2013-03-19 08:58:00
4:58 AM,28.4,19.9,71,30.10,10.0,NW,3.5,-,N/A,,Clear,320,2013-03-19 09:58:00
5:58 AM,27.7,20.3,74,30.14,10.0,SSW,1.2,-,N/A,,Scattered Clouds,210,2013-03-19 10:58:00
6:58 AM,28.6,18.5,66,30.13,10.0,NW,1.2,-,N/A,,Clear,310,2013-03-19 11:58:00
7:58 AM,28.6,18.3,65,30.17,10.0,NW,3.5,-,N/A,,Mostly Cloudy,310,2013-03-19 12:58:00
8:58 AM,32.7,19.2,58,30.20,10.0,WNW,2.3,-,N/A,,Overcast,290,2013-03-19 13:58:00
9:58 AM,36.0,17.4,47,30.23,10.0,NW,6.9,-,N/A,,Overcast,310,2013-03-19 14:58:00
10:58 AM,38.1,13.8,37,30.23,10.0,North,8.1,-,N/A,,Overcast,350,2013-03-19 15:58:00
11:58 AM,41.0,12.6,31,30.23,10.0,Variable,3.5,-,N/A,,Overcast,0,2013-03-19 16:58:00
12:58 PM,42.6,13.3,30,30.25,10.0,NNW,1.2,-,N/A,,Overcast,330,2013-03-19 17:58:00
1:58 PM,45.7,14.5,29,30.22,10.0,NNW,6.9,-,N/A,,Overcast,340,2013-03-19 18:58:00
2:58 PM,46.0,15.3,29,30.20,10.0,NNE,5.8,-,N/A,,Mostly Cloudy,20,2013-03-19 19:58:00
3:58 PM,42.8,26.8,53,30.23,10.0,Variable,6.9,-,N/A,,Overcast,0,2013-03-19 20:58:00
4:13 PM,42.8,28.4,57,30.21,10.0,NNW,9.2,-,N/A,,Overcast,330,2013-03-19 21:13:00
4:38 PM,41.0,28.4,61,30.22,10.0,West,8.1,-,N/A,,Mostly Cloudy,280,2013-03-19 21:38:00
4:53 PM,41.0,28.4,61,30.22,10.0,WNW,5.8,-,N/A,,Mostly Cloudy,290,2013-03-19 21:53:00
4:58 PM,40.5,28.8,63,30.26,10.0,NW,6.9,-,N/A,,Mostly Cloudy,320,2013-03-19 21:58:00
5:03 PM,41.0,30.2,65,30.22,10.0,NW,10.4,-,N/A,,Scattered Clouds,320,2013-03-19 22:03:00
5:30 PM,39.2,32.0,75,30.22,10.0,NNW,8.1,-,N/A,,Light Drizzle,330,2013-03-19 22:30:00
5:42 PM,37.4,32.0,81,30.23,10.0,NW,6.9,-,N/A,,Mostly Cloudy,310,2013-03-19 22:42:00
5:58 PM,37.9,31.8,79,30.26,10.0,NNW,4.6,-,0.00,,Overcast,330,2013-03-19 22:58:00
6:58 PM,37.8,31.1,77,30.26,10.0,Calm,Calm,-,N/A,,Partly Cloudy,0,2013-03-19 23:58:00
7:58 PM,36.7,31.6,82,30.26,10.0,WSW,2.3,-,N/A,,Scattered Clouds,240,2013-03-20 00:58:00
8:58 PM,35.1,31.5,87,30.23,10.0,SSW,4.6,-,N/A,,Mostly Cloudy,210,2013-03-20 01:58:00
9:58 PM,32.2,30.7,94,30.26,10.0,WNW,2.3,-,N/A,,Scattered Clouds,290,2013-03-20 02:58:00
10:58 PM,31.5,30.9,98,30.26,10.0,Calm,Calm,-,N/A,,Clear,330,2013-03-20 03:58:00
11:58 PM,30.6,30.4,99,30.25,10.0,SW,4.6,-,N/A,,Clear,220,2013-03-20 04:58:00